Wind_Speed
26 27 27 27 27 27 27 27 28 29 30 30 31 33 33 34 34 33 33 31 28 25 26 27 27 27 26 25 25 27 27 26 25 25 25 24 23 23 24 25 27 28 28 28 27 27 28 29 28 26 27 27 25 24 24 22 22 23 23 23 22 22 22 22 23 24 24 24 23 22 22 22 20 18 19 20 18 17 19 20 18 18 18 18 18
27 27 27 27 27 27 27 27 27 28 28 29 30 31 33 33 33 32 31 30 28 25 25 25 25 27 26 25 25 25 25 26 26 26 25 25 23 22 23 25 27 28 28 28 28 27 27 28 28 27 28 26 25 26 24 22 23 22 23 24 23 23 23 22 24 25 24 25 25 24 22 22 21 19 20 21 19 18 20 20 19 19 19 19 18
27 27 27 27 27 27 27 27 26 27 28 29 30 31 31 31 31 30 29 28 27 26 25 25 24 25 26 25 24 24 25 27 26 24 24 24 22 22 25 26 27 28 29 30 30 28 28 29 28 29 29 27 26 28 25 23 23 23 24 25 24 24 23 23 25 25 25 26 25 24 22 22 22 21 21 21 20 19 21 21 19 19 19 19 19
28 28 28 28 27 27 26 26 26 27 29 30 30 30 31 30 29 28 28 28 28 26 25 24 25 25 26 25 23 23 25 27 26 24 23 23 22 24 26 27 28 29 30 31 30 29 29 30 29 30 31 30 29 29 26 24 24 25 25 25 24 25 24 23 25 26 25 26 24 22 22 23 23 22 22 22 22 21 21 21 20 20 20 20 20
29 29 28 28 27 26 26 26 27 29 29 30 31 31 30 29 27 26 26 26 27 26 23 23 24 25 25 25 25 24 24 24 27 28 26 24 24 26 27 28 29 30 30 30 30 29 30 31 31 32 33 31 30 28 27 26 26 27 26 25 24 24 24 24 26 26 25 25 24 22 22 23 23 22 22 22 23 22 21 22 21 20 20 21 20
29 29 28 27 26 25 26 27 28 30 30 31 31 31 30 27 25 24 24 25 25 25 23 22 23 25 25 25 27 27 25 23 24 28 30 29 27 27 27 28 28 30 30 30 30 30 31 31 32 33 33 32 30 28 28 27 26 25 25 25 25 26 26 26 27 28 27 25 25 23 22 24 24 24 24 23 24 23 21 21 21 20 20 20 20
29 28 27 26 26 26 27 28 29 31 32 32 31 31 29 26 24 23 23 23 24 23 22 21 21 23 25 25 27 27 26 22 22 26 30 32 29 27 26 27 28 29 29 29 30 31 30 31 32 33 32 32 31 29 28 27 26 27 28 29 28 29 29 27 27 29 28 26 25 23 23 26 26 26 25 24 24 24 22 21 21 21 20 20 20
28 27 27 26 26 27 29 30 31 32 32 32 31 30 28 27 25 23 22 22 23 23 22 20 19 20 22 23 25 25 24 22 21 23 26 30 31 29 27 27 28 28 28 29 30 31 30 30 31 31 31 32 32 30 28 29 30 31 31 31 30 29 29 28 28 30 29 26 25 24 24 27 28 27 26 25 24 24 23 22 22 22 21 21 21
28 28 28 28 29 29 30 31 31 32 32 31 30 29 28 28 27 26 24 23 23 23 22 20 19 19 20 21 22 23 23 23 22 21 21 24 27 28 30 30 29 28 28 29 30 30 30 30 30 30 30 32 33 31 30 31 32 32 31 31 30 29 29 30 30 31 29 27 26 24 24 25 25 25 25 25 24 24 23 23 23 23 23 22 21
30 30 30 31 31 32 32 32 32 32 32 31 29 29 29 29 30 30 28 25 24 24 24 22 21 20 20 21 22 23 24 24 23 23 22 22 24 27 29 30 29 29 29 29 31 30 30 31 31 31 32 34 35 34 33 33 32 32 31 31 30 29 29 30 31 31 30 29 27 24 23 23 23 23 23 23 24 24 23 24 24 23 23 23 23
32 32 32 33 33 33 33 33 33 33 31 30 29 29 30 31 32 33 33 30 27 25 25 25 23 22 21 21 22 23 23 23 23 24 24 24 24 26 28 28 29 31 30 29 31 32 31 32 32 32 34 36 36 36 36 35 32 31 31 31 31 30 31 31 32 31 30 28 26 24 24 23 24 25 24 24 25 25 24 25 25 23 23 24 24
34 34 34 35 35 35 35 34 34 34 32 31 31 31 31 32 33 34 35 35 32 28 26 26 26 24 23 23 23 24 23 22 23 24 24 24 24 23 25 27 29 31 32 31 31 32 33 34 33 32 33 34 35 36 35 34 32 31 31 32 32 32 32 32 31 30 29 28 26 25 25 24 25 26 26 26 27 28 26 26 26 25 24 25 24
35 35 35 36 36 36 35 35 35 34 34 33 33 33 33 33 34 34 35 36 35 32 29 27 27 27 26 25 25 25 24 23 23 24 24 25 24 22 24 26 27 29 31 31 32 33 34 35 34 33 33 35 36 35 34 33 32 32 32 33 32 32 32 32 30 30 30 30 28 26 25 26 26 26 26 27 27 27 27 27 28 26 25 23 23
35 35 35 35 35 35 36 36 36 36 36 36 36 36 36 36 35 35 35 36 36 35 32 30 29 29 28 27 26 26 25 24 24 25 25 25 24 22 23 26 27 28 29 29 32 34 34 34 35 35 35 36 35 33 32 31 31 32 32 32 32 32 33 33 32 31 31 30 28 28 27 25 25 25 26 27 27 26 26 28 29 27 24 23 25
35 35 35 35 35 35 35 36 37 37 38 38 38 39 39 38 37 37 36 36 37 37 35 33 31 30 30 30 29 27 26 25 25 25 25 25 25 23 24 25 27 28 29 29 30 32 34 34 34 35 35 35 34 31 30 30 31 33 32 31 32 33 33 33 31 31 31 29 28 30 29 27 27 28 27 29 30 28 27 30 30 27 24 26 28
36 36 36 36 35 36 36 37 38 38 39 39 40 40 40 40 39 38 38 37 37 38 37 36 34 32 32 32 31 30 28 27 26 26 26 25 25 25 25 26 28 29 30 30 28 29 32 34 34 34 34 34 34 31 28 27 29 31 31 31 33 33 33 33 31 31 33 32 32 33 33 30 30 30 29 31 33 32 32 34 33 29 28 30 32
37 37 37 38 38 38 39 40 40 41 41 41 41 41 41 41 41 40 39 39 39 39 39 39 37 35 34 33 33 32 31 29 28 27 27 26 26 26 26 27 28 29 30 31 30 29 29 32 35 35 34 34 34 32 29 29 30 32 33 32 33 33 33 33 31 31 33 34 34 34 34 32 32 33 33 35 36 37 37 37 36 34 35 35 35
38 38 39 40 41 41 42 43 43 43 43 43 42 42 42 41 41 41 40 39 40 40 40 41 40 39 37 36 35 34 33 32 31 29 28 27 28 28 28 28 28 29 29 29 30 29 28 29 32 33 34 35 35 33 33 34 35 37 37 35 33 33 33 31 29 30 32 33 33 34 33 33 33 32 34 36 37 38 39 39 38 39 39 38 38
38 39 40 41 42 43 44 45 45 45 45 45 44 43 43 42 41 41 40 39 38 39 40 40 41 41 40 38 37 37 35 34 34 33 32 30 29 29 30 29 28 29 29 28 28 27 27 28 31 33 36 38 39 39 40 38 37 38 39 38 37 35 34 32 30 33 34 33 32 32 32 33 33 32 33 37 38 38 37 37 37 38 39 39 40
39 40 40 41 43 44 45 45 46 46 46 46 45 45 45 44 44 43 43 41 40 39 39 40 40 41 40 39 39 38 38 37 36 35 35 33 31 30 31 31 30 30 29 29 30 30 28 28 31 32 36 40 42 44 44 42 40 39 39 39 39 38 38 37 36 37 38 36 35 34 34 34 35 34 33 35 35 35 34 34 35 38 40 41 42
42 42 43 43 43 44 45 46 46 47 47 47 48 48 48 48 48 48 47 46 45 44 43 42 42 42 42 41 39 39 39 39 37 37 36 35 33 31 31 31 32 31 30 29 31 32 29 29 29 29 33 42 46 46 45 44 45 45 42 40 40 40 41 41 39 39 39 38 36 35 34 34 35 35 34 34 34 34 35 37 38 39 41 42 42
44 44 45 46 46 47 48 48 48 49 50 50 51 52 52 53 53 53 52 51 50 49 47 46 46 45 44 43 42 40 39 39 39 38 37 36 35 33 32 31 31 31 30 29 30 30 28 28 28 27 31 40 47 48 47 46 47 47 46 43 40 37 37 39 39 38 38 38 35 33 34 34 35 36 37 37 38 39 40 42 42 41 42 43 42
43 44 45 45 46 47 48 49 50 50 51 52 53 53 54 54 54 55 55 55 54 52 51 49 48 47 46 45 44 42 41 40 40 39 38 37 36 35 34 32 32 32 31 30 29 28 28 28 28 27 29 33 39 44 46 47 47 47 46 43 39 35 34 35 36 37 38 38 36 35 36 36 36 38 40 40 42 43 45 47 45 42 43 44 43
41 42 43 44 45 46 48 49 50 50 51 52 52 53 53 54 54 54 55 55 54 54 52 51 49 47 47 46 44 43 42 41 40 40 39 38 37 36 35 34 33 33 33 31 29 29 28 28 27 29 29 28 30 37 43 45 45 44 43 42 39 37 37 37 37 38 39 39 39 39 40 40 40 42 43 43 43 45 47 47 46 44 44 46 47
41 42 43 44 46 47 48 50 51 51 52 53 54 54 55 55 55 55 55 55 54 54 53 52 50 49 47 46 45 43 42 40 40 40 40 39 38 38 37 36 34 34 34 33 31 30 30 29 29 29 29 27 28 34 41 43 42 41 40 39 38 37 37 37 38 39 40 40 40 41 41 42 43 45 45 44 44 46 46 46 46 45 46 48 51
42 43 45 46 48 49 50 52 54 55 56 57 57 58 58 58 58 57 57 56 56 55 55 53 52 51 49 48 47 46 43 41 39 38 39 40 39 39 38 38 36 34 34 34 33 32 31 31 31 29 28 27 30 36 40 42 41 39 38 37 35 34 35 35 36 38 39 40 40 40 40 41 42 43 44 44 45 46 46 46 48 48 49 51 53
41 43 44 46 48 49 50 52 53 55 56 57 58 59 59 60 60 59 59 58 57 56 55 54 53 51 50 49 48 47 46 43 40 38 38 39 40 39 39 39 38 36 35 35 35 34 33 32 32 32 30 29 32 35 38 38 38 36 35 35 35 35 35 34 34 35 36 38 39 39 39 41 41 41 42 42 44 45 47 48 50 50 50 50 51
36 37 38 40 41 43 44 45 46 48 49 51 52 53 54 55 55 56 57 57 56 55 54 52 51 50 49 48 48 47 47 45 43 40 38 38 39 39 39 39 39 37 36 35 36 36 35 34 34 34 34 32 32 33 34 35 35 35 35 35 35 35 34 34 33 33 34 35 37 37 39 41 43 42 42 43 43 44 45 46 47 46 45 45 45
28 30 31 32 33 35 36 37 38 39 40 41 43 44 45 46 46 47 49 50 51 51 51 50 49 47 46 46 45 45 46 45 43 42 39 38 38 38 39 39 39 38 37 36 36 37 36 36 36 36 35 34 32 32 33 34 34 34 35 36 35 34 34 33 33 34 34 35 35 36 37 39 40 41 42 43 43 43 43 43 43 44 43 43 43
25 26 28 29 30 31 31 32 33 33 33 33 32 33 34 36 37 37 39 40 41 43 44 45 44 44 43 42 42 43 43 43 43 42 40 39 38 37 38 38 38 38 38 37 37 37 38 37 37 37 37 36 34 33 33 35 35 35 35 35 35 35 34 34 34 35 36 37 37 38 39 40 41 43 44 44 44 44 43 42 42 43 43 43 44
25 26 28 29 29 29 29 29 29 29 28 28 27 26 26 26 27 28 29 30 31 32 34 36 37 38 37 37 38 40 41 41 42 41 40 39 38 37 37 38 38 38 39 39 38 38 38 39 39 39 39 38 36 34 34 36 37 37 36 36 36 36 36 36 36 37 38 39 40 41 43 44 45 45 44 44 43 42 42 42 43 45 46 47 48
25 26 28 29 30 31 31 30 30 29 28 27 26 26 25 24 23 23 24 25 25 25 25 26 28 30 31 31 33 35 38 39 40 41 40 39 38 37 37 37 38 39 38 38 38 39 39 39 38 39 40 39 37 35 35 36 38 38 38 38 38 38 38 38 38 38 39 41 42 44 45 45 45 44 42 41 41 41 43 45 48 50 51 52 53
24 26 27 29 30 31 32 33 33 32 30 29 28 27 27 26 25 24 23 23 23 23 22 21 21 23 24 26 27 30 34 36 38 39 39 39 39 38 38 38 38 38 37 36 36 37 38 39 39 39 40 40 40 39 38 38 39 39 39 40 40 40 40 40 41 42 43 44 44 45 45 44 43 42 42 43 45 47 50 51 53 54 55 55 56
24 25 26 28 29 30 31 32 33 34 34 33 31 29 27 26 25 25 24 23 23 23 22 21 20 19 20 21 23 25 29 32 35 37 38 39 39 39 39 39 39 39 38 38 38 37 37 38 40 41 42 43 43 43 42 41 41 42 42 43 43 43 43 43 43 44 44 44 44 44 44 44 44 45 48 50 52 54 55 55 55 55 56 56 56
23 24 25 26 27 29 30 31 32 33 34 34 34 33 31 29 28 26 26 25 24 24 24 23 22 20 19 19 19 21 24 27 30 33 35 37 38 38 39 39 40 40 40 41 42 42 40 39 38 40 43 45 46 46 46 46 46 46 46 46 46 46 46 46 46 46 46 46 45 45 46 46 47 49 51 52 53 55 56 56 57 56 56 56 56
22 24 25 26 27 28 29 30 30 31 32 32 33 34 35 34 33 31 29 28 27 26 25 25 24 23 22 20 19 18 19 21 25 28 32 33 35 36 37 39 39 40 40 41 43 46 47 46 43 41 40 41 43 44 46 47 48 48 48 48 48 48 49 49 48 48 48 48 48 48 49 49 49 49 50 52 53 54 55 55 54 53 53 52 52
22 23 24 25 26 27 28 28 29 30 30 31 32 33 34 35 35 35 34 32 30 28 27 26 25 25 24 23 22 20 19 19 19 22 26 30 32 33 34 36 38 39 40 41 41 43 46 49 50 49 46 44 43 41 41 41 43 44 45 46 46 47 48 49 49 49 49 49 48 48 48 48 48 49 50 51 51 50 49 48 48 47 46 46 45
21 22 22 24 25 25 26 27 28 28 29 30 31 31 32 32 33 34 35 34 33 32 30 28 26 25 25 24 23 22 21 20 19 19 20 23 27 30 32 34 35 36 38 39 40 40 41 43 47 49 50 50 50 48 46 44 42 41 41 42 43 43 44 45 46 46 46 45 45 45 45 46 46 47 48 47 45 44 44 43 43 43 43 43 43
19 20 20 21 22 23 23 24 25 26 27 28 29 29 30 30 31 32 33 34 34 34 33 32 29 27 25 25 24 24 23 22 21 20 19 19 21 24 28 31 33 34 35 36 37 38 38 38 40 42 44 47 49 50 51 52 50 48 46 44 43 43 43 43 43 43 43 43 43 43 43 42 42 42 43 42 42 42 41 41 41 42 43 44 44
18 19 19 20 20 20 21 22 23 24 25 26 27 28 29 30 30 30 31 31 32 33 34 34 33 31 29 27 25 24 24 24 23 22 21 20 20 20 22 25 29 32 34 35 35 35 35 35 35 36 38 40 42 43 45 48 49 50 49 47 45 44 44 44 43 43 43 43 43 43 42 40 39 40 40 41 41 40 40 41 42 43 44 44 43
18 18 19 19 19 20 20 20 21 22 23 24 25 26 28 29 29 30 30 30 31 31 32 34 35 35 33 31 28 26 25 25 25 25 23 22 21 21 20 21 24 27 30 33 34 35 35 34 33 33 33 35 37 38 39 40 41 42 43 43 43 42 41 41 41 42 43 43 42 42 41 40 40 41 41 41 41 40 41 42 43 43 42 41 40
18 19 19 19 20 20 20 20 21 21 22 23 24 25 26 27 28 29 29 30 30 31 31 32 33 35 35 35 33 30 28 27 26 26 26 25 23 22 21 21 21 23 25 28 30 32 33 34 33 32 32 32 32 33 34 36 36 37 37 38 38 38 38 38 39 40 41 41 41 41 41 41 41 42 42 42 42 42 42 42 41 40 39 37 36
19 20 20 21 21 21 21 21 21 21 21 22 23 24 25 26 27 28 29 30 31 31 31 31 32 33 35 36 36 34 32 30 29 28 28 28 27 25 23 22 21 22 22 24 26 28 29 31 31 31 31 31 31 31 31 31 32 33 34 34 34 34 35 36 37 38 39 40 40 41 41 40 40 40 41 41 41 40 39 38 37 36 34 32 31
20 21 21 22 23 23 22 22 21 21 21 21 22 23 24 25 26 28 29 30 31 31 31 31 32 32 33 35 36 37 36 34 32 31 30 29 29 28 26 24 22 21 22 22 23 24 25 27 27 28 28 29 29 29 29 29 29 29 30 31 31 32 33 33 34 35 36 37 38 38 38 38 38 38 37 37 36 35 34 32 31 30 29 27 26
21 22 22 23 24 24 24 23 22 21 21 21 22 23 24 24 25 27 28 29 31 32 32 32 32 32 32 33 35 37 38 37 35 33 32 31 30 30 29 27 24 22 21 21 21 22 23 24 24 25 25 25 26 26 27 27 27 27 27 27 27 28 29 30 31 32 32 33 33 33 33 33 33 33 32 31 30 29 28 27 26 24 23 23 22
21 22 23 24 25 25 25 24 23 22 22 23 23 23 24 25 25 26 27 28 30 31 32 33 33 33 33 33 34 36 37 38 38 37 35 33 32 31 30 29 27 25 23 21 21 21 21 21 22 22 23 23 23 23 23 24 24 24 24 24 24 25 25 26 26 27 27 28 28 28 28 28 28 27 26 26 24 24 23 22 21 20 19 19 19
22 23 23 24 25 25 25 24 24 23 23 24 24 25 25 25 26 26 26 27 28 30 31 33 34 34 34 34 34 35 36 37 38 38 37 35 33 32 31 30 28 26 25 22 21 20 20 20 20 20 21 21 21 21 21 21 21 22 22 22 22 23 23 23 24 24 24 24 24 24 24 24 24 23 23 22 21 20 20 19 18 17 17 18 19
22 22 23 24 25 25 25 24 24 24 24 24 25 25 25 25 26 26 27 27 28 29 30 32 33 34 35 34 34 34 35 36 37 38 38 37 36 34 32 30 29 27 26 24 22 20 19 19 19 19 19 20 20 20 19 19 20 20 20 20 21 21 22 22 23 23 23 23 23 22 22 22 21 20 20 19 19 19 18 17 17 17 18 19 20
21 22 23 24 25 25 25 24 24 24 24 25 25 25 26 26 26 27 27 27 28 28 29 31 32 34 34 35 34 34 34 35 36 37 38 38 37 36 34 32 30 28 27 25 23 22 20 19 19 19 18 19 19 19 19 19 19 19 19 19 20 20 21 21 22 22 23 23 23 23 23 22 21 21 20 20 19 18 18 18 18 19 20 20 21
21 22 23 24 25 25 26 25 24 24 24 25 26 26 26 27 27 27 27 28 28 28 29 30 31 32 34 34 34 34 34 34 34 35 36 37 38 37 35 33 31 30 28 26 25 23 21 20 19 19 19 19 19 19 19 19 19 19 19 19 19 19 20 20 20 21 22 23 23 23 23 23 22 22 21 20 19 19 19 19 20 21 21 21 21
22 22 23 24 25 25 26 26 25 25 25 25 26 27 27 27 27 28 28 28 28 28 29 29 30 31 33 34 34 34 33 33 33 33 34 35 36 37 36 35 33 31 29 28 26 24 22 21 20 19 19 19 19 19 20 20 20 19 19 19 19 19 19 19 19 20 21 21 22 22 22 23 22 22 21 20 19 19 20 20 21 21 21 21 21
Wind_Direction
286 289 291 294 296 298 300 303 305 306 307 308 310 311 310 311 313 315 316 313 307 297 293 291 286 284 281 274 272 272 270 271 269 264 265 269 269 264 260 258 255 251 245 240 242 245 246 246 244 241 238 232 231 241 244 242 245 248 252 256 255 255 254 253 253 253 255 258 259 260 261 264 267 269 273 277 279 279 279 281 281 278 275 272 268
285 287 290 292 294 297 299 303 304 304 306 308 309 310 310 312 313 316 317 314 311 304 297 292 285 280 277 274 272 270 270 275 272 265 264 265 266 265 261 258 255 251 247 244 246 245 243 243 242 239 238 233 235 245 245 243 247 249 253 258 258 256 256 255 255 254 255 257 258 260 264 267 270 272 274 277 278 277 277 279 280 279 277 274 270
283 285 288 290 292 296 299 300 300 302 305 307 309 309 310 311 313 317 319 317 315 312 303 293 284 278 274 271 268 262 264 270 269 264 262 262 262 262 259 257 254 251 249 248 247 245 243 243 241 239 239 235 238 247 248 244 247 249 253 258 260 259 258 256 255 254 254 255 257 260 263 265 270 274 275 276 278 277 277 279 280 279 278 275 271
282 284 286 289 292 295 297 297 298 301 304 306 308 309 309 312 315 318 321 320 320 319 310 295 284 279 276 274 272 267 265 265 263 263 265 265 262 259 257 256 255 253 252 250 248 247 245 244 242 241 242 242 243 248 247 243 246 250 253 256 258 259 259 256 256 256 256 256 257 260 262 265 271 274 274 276 277 276 276 279 279 278 277 275 272
281 284 286 289 292 293 293 295 297 300 303 304 307 309 309 312 316 318 320 321 322 323 316 299 284 276 273 272 274 275 272 267 263 262 264 267 265 260 255 254 254 254 253 251 249 247 245 245 245 245 246 246 244 248 249 247 249 254 255 256 257 257 256 253 254 256 257 258 259 259 264 269 272 272 272 274 275 275 275 277 277 276 274 274 273
281 284 286 288 289 290 291 294 297 300 302 304 305 307 308 311 315 319 320 320 322 324 321 309 291 278 272 270 270 272 273 271 265 261 260 263 265 264 260 255 251 250 250 249 247 245 245 247 249 249 249 246 243 249 253 251 252 256 255 254 252 249 246 245 246 251 256 260 260 260 265 270 271 271 271 272 273 274 273 273 274 273 271 271 272
280 282 284 285 286 288 291 294 298 299 301 302 303 304 305 309 314 318 320 320 321 321 321 317 304 289 280 275 271 271 273 274 269 262 260 260 261 264 265 262 259 253 249 248 246 245 246 248 250 251 249 245 244 245 245 246 250 251 250 250 247 244 244 242 239 246 254 257 257 259 265 270 272 272 271 271 271 272 272 270 269 268 268 268 269
278 279 281 283 285 288 291 295 297 299 300 301 301 302 302 305 310 314 317 318 318 318 318 316 309 299 290 283 277 270 270 278 279 269 263 260 258 260 264 269 272 266 255 250 248 248 248 248 250 250 247 245 244 239 238 245 252 252 251 251 249 248 249 244 237 242 249 253 256 261 266 271 274 272 270 268 266 267 268 266 265 265 265 265 267
276 277 279 282 284 287 290 293 296 297 298 299 299 299 299 301 305 308 311 314 314 314 314 313 309 303 296 292 289 278 273 282 289 284 277 269 263 262 263 265 271 272 263 254 250 250 250 250 251 250 247 247 246 241 244 253 256 254 252 252 252 251 249 245 242 245 250 254 257 262 266 270 272 269 266 265 263 263 264 262 261 261 261 263 265
274 276 278 281 284 286 289 292 293 294 295 295 295 296 297 299 302 304 306 307 308 309 309 309 306 302 296 292 294 291 289 292 294 290 288 281 271 269 267 264 266 271 268 259 253 250 249 250 252 250 248 250 250 249 253 258 258 255 251 249 251 251 249 248 248 250 254 255 256 260 263 267 268 265 262 264 266 265 262 260 258 257 259 262 264
275 276 278 280 283 285 288 289 290 290 290 291 292 294 296 298 300 302 303 303 303 302 302 303 302 300 296 291 290 292 295 298 297 294 292 286 277 275 275 271 269 270 270 264 257 252 249 249 250 250 250 253 256 256 258 260 258 254 249 247 250 252 251 251 250 251 254 253 251 256 262 263 261 259 261 266 269 266 261 259 257 256 258 262 264
275 277 279 280 282 284 285 286 286 286 286 287 289 291 294 296 298 300 301 301 301 299 297 297 297 296 294 291 289 289 291 295 297 297 296 292 287 283 281 277 272 271 271 267 259 253 249 249 251 252 252 253 255 257 258 258 256 253 249 249 252 253 253 252 250 250 251 250 252 260 265 264 258 258 264 270 270 266 260 257 257 256 257 262 266
277 278 279 280 281 282 283 283 283 282 282 284 286 289 291 292 294 295 297 298 299 298 296 294 293 292 291 290 289 288 289 291 292 294 295 295 294 294 289 282 277 273 271 267 261 254 249 248 250 252 251 248 248 250 253 255 255 255 254 254 255 255 256 255 253 251 251 254 259 264 265 263 259 260 266 268 268 268 262 256 254 253 254 261 265
277 279 280 281 281 281 281 281 281 280 281 282 284 287 288 290 291 293 294 295 296 296 295 293 291 289 288 287 287 287 288 288 288 290 292 293 296 297 293 285 279 275 273 269 263 256 251 248 248 251 253 249 245 245 249 253 257 257 256 256 257 256 255 255 253 251 253 256 260 262 264 261 256 260 267 268 268 266 259 255 253 250 253 263 265
278 279 280 281 281 281 281 281 281 281 282 283 284 286 288 289 290 290 291 291 292 293 294 293 291 289 287 286 285 284 285 286 286 286 287 290 292 293 291 287 281 273 270 269 263 257 254 250 248 250 253 248 244 246 250 253 255 256 255 256 256 254 253 253 252 253 255 253 251 252 257 257 254 257 265 267 267 263 256 254 253 252 262 273 273
278 278 279 280 280 281 281 281 282 282 283 284 285 286 287 288 288 288 288 288 288 289 290 291 290 289 287 286 284 283 282 281 282 284 285 287 288 288 288 287 282 275 271 270 267 260 256 253 250 251 251 246 243 248 251 250 252 255 256 255 254 253 254 254 254 256 255 251 247 246 250 253 253 252 252 254 258 260 257 254 252 258 273 279 277
278 278 279 280 280 281 281 282 283 284 284 285 285 285 286 286 286 286 286 286 286 286 286 287 288 287 286 285 284 283 281 279 278 279 281 283 285 285 285 284 282 280 278 275 271 267 261 256 252 252 252 248 244 244 243 241 245 252 256 255 254 253 255 255 255 255 252 251 251 251 252 253 252 252 251 250 252 256 257 255 254 263 276 280 277
279 279 279 280 280 281 282 283 284 285 286 286 286 285 285 285 285 285 285 285 284 284 284 284 284 285 284 284 283 282 280 278 276 275 276 278 281 281 282 282 281 281 280 276 274 271 267 262 258 256 255 251 246 242 239 240 246 251 251 251 250 250 253 257 256 254 251 251 254 256 257 255 254 253 253 253 254 255 255 254 256 264 272 275 275
281 281 281 281 281 281 282 282 283 284 285 285 286 286 285 284 284 284 284 284 283 283 282 282 282 283 283 283 282 281 280 277 275 274 273 275 277 277 278 278 277 276 275 275 275 273 270 267 263 260 259 257 252 247 244 243 247 248 244 242 244 246 250 253 253 253 255 253 250 251 253 254 255 257 258 259 260 257 252 252 258 264 269 272 272
283 283 283 282 282 282 281 281 281 282 283 284 284 285 285 285 285 284 284 283 282 281 281 281 281 281 282 282 282 281 280 279 277 275 275 275 274 273 274 276 276 275 274 274 275 275 276 275 270 265 263 262 259 253 248 244 243 243 241 241 243 245 248 250 250 253 255 250 245 246 248 249 252 257 259 257 255 251 249 254 263 269 272 272 271
283 283 283 283 283 283 283 283 282 282 282 283 283 284 284 284 284 284 283 282 282 281 280 279 279 279 279 280 280 280 280 280 279 277 276 276 274 271 271 273 275 275 275 275 277 278 278 278 278 276 271 266 261 256 252 247 242 240 241 243 246 247 250 250 249 250 250 246 243 244 246 248 251 252 251 249 245 244 249 259 267 271 272 271 269
283 284 284 284 284 285 285 285 285 285 285 284 284 284 284 284 284 284 284 283 282 281 280 279 279 278 277 277 277 277 277 278 279 278 276 276 276 274 271 269 270 271 273 275 278 279 278 275 274 275 271 267 264 260 256 253 248 244 245 248 249 249 251 251 250 248 247 245 242 240 241 246 250 250 249 250 252 253 257 263 267 269 269 269 267
286 286 286 286 286 287 287 287 286 286 286 286 285 285 284 284 284 284 284 283 283 282 281 280 279 278 277 276 275 275 274 274 275 276 276 275 274 274 272 269 268 268 270 271 273 275 277 275 272 269 266 265 266 265 262 259 256 255 254 253 251 247 245 248 250 248 246 245 244 241 239 241 244 246 247 249 253 258 261 264 265 266 266 267 266
289 289 289 289 288 288 288 288 287 286 286 285 285 284 284 283 283 283 283 282 283 282 282 281 280 279 278 277 276 275 274 272 271 271 272 273 272 272 271 269 268 267 267 268 268 270 272 274 272 270 267 264 267 269 268 265 264 262 259 256 255 252 247 248 250 250 249 249 247 245 242 240 240 243 246 248 252 256 259 262 264 265 265 266 265
292 291 291 291 290 290 289 289 288 287 286 286 285 284 283 282 282 281 281 281 281 281 281 281 280 280 279 278 277 275 274 272 270 269 269 269 269 269 269 268 267 266 265 265 264 265 267 268 269 269 268 266 267 270 270 269 269 268 263 258 258 257 253 250 250 251 252 253 251 249 247 246 244 244 245 248 252 255 258 262 263 263 262 262 260
295 295 294 294 293 293 292 291 290 289 288 287 286 285 284 283 282 281 280 280 280 280 280 280 280 279 279 278 278 277 276 274 271 269 267 266 265 265 265 266 265 264 263 263 261 260 262 264 265 266 265 265 267 269 270 270 269 267 263 258 256 257 258 257 255 253 252 253 253 253 252 251 250 250 250 252 254 255 257 259 260 258 259 259 260
299 298 298 297 296 295 294 293 291 290 288 286 285 284 283 282 281 280 280 279 278 278 278 278 278 278 277 277 277 277 277 276 273 270 267 265 265 263 262 262 262 262 261 260 259 258 258 259 262 263 261 260 263 267 268 267 264 262 259 256 256 260 263 263 260 257 255 254 254 254 253 250 249 249 249 249 251 253 256 258 259 260 262 264 266
305 304 304 302 301 299 297 295 294 292 290 288 286 284 283 282 281 280 279 278 277 277 276 276 275 275 275 274 274 274 274 275 274 271 268 265 263 263 261 260 259 259 258 257 257 257 256 255 256 258 258 256 257 262 265 263 260 258 257 256 258 262 264 262 259 257 257 257 256 255 253 249 246 246 248 251 255 258 260 260 262 264 266 269 270
317 317 316 315 313 310 307 303 300 298 297 295 293 290 288 286 284 283 281 279 278 278 277 275 275 274 272 271 270 270 270 271 271 270 269 265 262 261 260 259 258 257 256 254 254 254 255 254 253 255 256 255 256 261 265 263 259 258 258 258 260 262 264 264 262 260 260 260 258 256 253 251 250 253 257 261 263 264 264 264 265 267 270 272 274
336 336 336 334 331 328 324 319 315 311 309 308 307 305 301 297 294 291 288 286 283 282 280 278 276 274 271 269 266 265 265 266 266 266 265 264 262 259 258 259 258 256 254 253 252 252 253 253 253 253 254 254 254 256 260 261 259 258 258 258 260 261 262 262 263 262 262 261 259 256 254 256 259 263 266 266 265 264 266 269 271 273 275 276 277
349 351 352 351 350 348 345 341 337 333 330 329 329 329 326 320 314 309 304 299 294 290 287 284 281 278 274 269 265 261 260 259 260 261 261 260 260 258 256 255 255 254 252 251 250 250 251 252 252 251 252 253 252 252 255 257 258 257 257 256 257 259 259 259 259 259 259 258 258 257 257 259 262 264 265 265 264 266 270 273 274 275 277 277 277
358 359 1 3 4 4 4 3 360 356 352 349 348 349 349 346 341 334 327 320 313 307 301 295 290 285 279 273 266 261 257 255 254 255 256 256 255 255 253 252 252 253 253 252 252 251 251 252 253 252 252 252 251 251 254 256 257 258 258 259 259 259 259 258 257 256 257 258 259 259 259 259 260 261 262 263 265 269 272 274 274 274 275 275 274
3 5 7 10 12 13 14 15 14 12 8 4 360 357 355 355 354 352 347 341 335 328 321 313 304 295 288 280 271 263 258 254 252 251 251 251 251 251 250 250 249 249 249 250 252 253 252 252 253 253 253 252 251 250 252 254 255 257 259 260 260 260 260 259 258 258 259 260 260 260 259 259 260 262 265 268 270 272 273 273 273 274 274 274 274
6 8 10 12 13 15 17 18 18 19 18 15 12 7 2 358 357 356 355 354 350 346 340 334 326 316 304 293 282 272 263 258 254 252 250 250 249 248 248 248 249 247 245 243 245 248 249 249 250 250 251 251 250 250 250 251 252 254 255 257 258 258 258 258 259 260 260 260 259 259 259 261 264 267 269 271 272 272 272 272 273 273 274 274 274
8 10 11 12 13 14 15 15 16 18 19 20 19 17 14 10 6 2 359 357 355 354 352 349 345 339 330 317 302 289 277 267 261 256 254 252 250 249 247 247 247 248 246 244 242 243 246 248 249 249 248 248 248 249 249 250 251 252 253 254 255 255 256 255 255 256 257 258 258 259 261 263 265 267 268 269 269 270 270 271 272 272 273 273 273
6 9 11 11 12 13 13 13 14 14 15 16 18 19 19 18 16 12 8 3 359 356 354 353 351 349 346 340 330 318 302 287 274 266 261 258 255 252 250 249 248 247 247 247 245 243 244 246 249 249 249 248 247 248 248 249 250 251 252 253 254 255 255 255 254 254 255 256 258 259 260 262 263 264 266 267 268 268 269 270 271 272 272 272 271
3 6 7 8 10 12 12 12 12 12 12 12 13 15 17 18 18 17 14 11 7 3 359 355 353 351 349 346 343 338 329 317 300 284 273 266 263 259 256 253 252 250 249 249 248 247 246 246 248 250 250 250 249 249 249 249 249 249 250 251 253 254 254 254 254 255 256 257 258 259 260 261 262 263 264 264 265 265 266 268 270 270 269 268 266
358 0 1 3 6 8 8 9 10 11 11 11 11 11 12 13 15 16 16 15 13 10 7 2 357 353 350 347 345 342 339 334 327 315 298 282 273 268 264 260 258 256 255 254 253 252 251 250 250 251 253 253 253 253 253 253 253 252 251 251 251 251 252 252 253 254 255 256 257 258 259 260 260 261 261 260 261 263 265 266 266 265 264 264 264
353 353 354 358 1 1 2 4 7 8 10 10 9 9 9 10 11 12 13 14 15 14 12 9 5 0 355 351 349 347 344 340 335 330 322 309 294 281 273 268 265 263 262 261 260 259 257 255 253 253 254 255 255 255 255 255 256 256 256 255 254 254 254 255 255 256 256 257 258 259 259 260 261 261 261 261 261 262 262 261 262 263 264 265 267
347 347 349 352 353 353 355 357 0 3 6 7 7 8 8 8 8 8 9 10 12 13 13 12 11 9 4 359 355 352 350 347 342 336 329 322 314 302 290 280 273 269 267 266 266 265 265 263 260 257 255 256 256 256 256 256 256 256 256 256 257 258 259 260 261 261 261 261 260 260 261 262 264 264 263 261 258 257 258 261 264 265 266 266 267
349 348 348 348 347 346 347 350 352 355 359 1 3 5 7 7 7 6 6 6 8 10 11 12 12 11 10 7 2 358 355 353 350 347 340 332 323 314 306 296 286 278 273 270 269 269 269 268 266 263 259 258 258 258 257 257 257 256 256 256 256 257 259 260 261 261 261 261 260 261 262 262 263 262 259 256 254 256 260 264 265 264 263 263 264
353 351 350 348 345 344 343 344 345 348 351 355 358 1 3 4 4 5 5 5 5 5 7 10 10 11 11 10 8 5 1 358 356 354 352 346 338 327 317 308 300 292 284 278 274 272 271 271 270 268 265 262 261 261 260 259 258 257 256 255 255 256 257 257 257 257 257 257 258 258 258 257 256 255 254 254 256 260 263 263 261 260 260 261 262
357 356 355 353 350 347 344 342 341 343 346 349 352 354 356 358 360 1 3 4 4 4 4 5 7 8 9 10 9 8 6 3 0 358 357 355 351 343 333 323 313 304 297 290 284 280 276 274 273 271 269 266 264 263 263 263 261 259 258 257 257 256 256 256 256 256 256 256 256 255 254 254 253 253 254 255 258 260 259 258 257 258 259 260 261
358 358 358 356 354 352 348 344 341 341 342 344 346 348 350 353 355 357 359 1 2 3 2 2 3 4 6 7 8 9 8 7 4 1 359 358 356 353 346 338 328 318 309 302 296 291 286 282 279 277 274 271 268 265 265 265 265 264 262 261 259 258 258 258 258 257 257 256 256 255 254 254 254 254 255 255 256 255 255 255 257 258 259 260 263
356 357 357 357 356 354 351 347 344 342 341 342 343 345 347 349 351 353 354 356 358 360 1 1 0 1 2 4 6 7 7 7 6 4 1 359 358 357 353 347 340 332 323 314 306 300 295 291 288 286 283 279 275 270 268 267 267 268 267 266 264 263 262 260 260 259 258 257 256 256 255 255 255 254 254 254 253 253 254 255 256 257 259 262 264
353 354 355 355 355 354 352 350 347 345 343 343 343 344 345 346 347 349 351 352 354 356 357 358 359 358 359 0 3 4 5 5 5 4 3 1 359 358 357 354 349 342 335 326 317 309 303 298 295 293 291 289 285 280 274 270 268 268 269 270 270 270 268 266 264 262 260 259 258 257 256 255 254 253 253 252 252 253 254 255 256 258 261 264 265
350 351 352 352 353 353 352 351 349 348 346 345 344 344 344 344 345 346 347 348 350 351 353 355 356 356 356 357 358 1 2 3 2 2 3 2 0 359 358 356 354 350 344 337 329 320 312 306 301 298 296 294 291 288 283 278 272 269 269 269 270 271 271 270 269 267 264 262 260 257 255 253 252 251 251 250 250 251 253 255 257 259 261 263 264
345 346 348 349 350 351 351 350 349 349 348 347 346 344 344 343 343 344 345 346 346 348 349 351 352 353 354 354 355 356 358 0 0 360 0 1 1 359 358 357 356 354 350 346 339 331 323 316 310 305 301 298 295 292 288 283 278 274 270 268 268 268 268 268 268 267 266 264 262 259 256 254 252 250 250 249 250 252 254 256 258 260 262 263 264
339 341 343 345 347 348 348 348 347 347 347 347 346 345 344 344 343 343 343 343 344 344 346 348 349 350 351 351 351 352 353 356 358 358 358 358 359 359 358 356 356 355 353 351 346 341 333 326 320 313 308 303 299 295 291 288 284 279 274 271 270 269 268 267 265 264 263 262 261 259 257 255 253 252 252 252 252 254 256 258 260 262 262 263 264
334 336 338 340 343 344 345 345 344 344 344 345 345 345 344 344 343 342 341 341 341 342 343 344 346 347 348 348 348 349 350 352 354 356 356 356 356 356 357 356 355 354 353 353 351 347 342 335 328 322 316 310 304 300 296 292 288 284 280 276 273 271 270 269 267 265 262 260 258 256 254 252 251 250 250 250 251 253 256 258 260 261 261 262 264
331 332 334 335 338 340 341 342 341 341 341 341 342 342 342 342 342 341 340 339 339 339 340 342 343 344 345 346 346 346 347 348 350 352 354 354 354 354 354 354 354 353 352 351 351 349 346 342 336 329 323 317 311 307 302 298 293 290 286 282 279 277 276 275 273 270 267 263 260 257 253 250 248 247 247 248 250 253 255 257 259 261 262 263 264
Height
5777 5776 5776 5775 5774 5774 5773 5772 5771 5770 5768 5767 5766 5764 5762 5761 5759 5757 5755 5753 5752 5750 5749 5748 5747 5747 5746 5747 5748 5749 5748 5748 5748 5748 5748 5749 5750 5751 5753 5753 5754 5754 5755 5757 5759 5759 5760 5761 5762 5763 5763 5763 5764 5766 5766 5767 5769 5770 5771 5771 5772 5771 5772 5773 5773 5774 5774 5773 5773 5775 5775 5775 5776 5778 5778 5777 5779 5779 5779 5779 5779 5780 5780 5780 5780
5774 5773 5773 5772 5772 5771 5770 5769 5768 5767 5766 5765 5763 5762 5760 5758 5757 5755 5753 5751 5748 5747 5745 5744 5744 5744 5743 5744 5745 5746 5747 5747 5746 5746 5746 5747 5748 5749 5749 5750 5750 5750 5751 5753 5754 5755 5756 5757 5758 5759 5759 5759 5760 5762 5763 5764 5765 5767 5767 5767 5768 5768 5768 5769 5770 5770 5770 5770 5770 5771 5773 5773 5773 5774 5775 5774 5775 5776 5776 5776 5777 5777 5777 5777 5777
5771 5771 5770 5769 5769 5768 5767 5766 5766 5765 5764 5763 5761 5760 5758 5756 5754 5752 5751 5748 5746 5744 5742 5740 5740 5740 5740 5740 5740 5741 5743 5744 5744 5745 5744 5745 5745 5746 5745 5746 5746 5746 5746 5747 5749 5750 5751 5753 5754 5755 5756 5757 5758 5759 5759 5760 5761 5762 5763 5764 5764 5764 5765 5766 5766 5767 5767 5767 5767 5769 5770 5771 5771 5771 5771 5771 5772 5773 5772 5773 5774 5774 5774 5774 5774
5768 5768 5767 5766 5766 5765 5764 5764 5764 5763 5762 5761 5759 5758 5756 5754 5752 5750 5748 5746 5744 5742 5739 5737 5736 5736 5737 5737 5737 5738 5739 5739 5740 5742 5743 5743 5743 5742 5742 5742 5742 5742 5742 5743 5745 5746 5747 5749 5750 5751 5753 5754 5755 5756 5756 5756 5757 5758 5759 5760 5760 5760 5761 5762 5762 5763 5764 5764 5765 5766 5767 5767 5768 5768 5768 5768 5768 5769 5769 5769 5770 5771 5771 5771 5771
5765 5764 5764 5764 5763 5762 5762 5761 5761 5761 5760 5759 5757 5756 5754 5752 5750 5748 5746 5744 5742 5740 5738 5736 5734 5734 5735 5735 5735 5736 5736 5736 5736 5738 5739 5740 5739 5738 5738 5738 5738 5738 5739 5740 5742 5742 5743 5744 5746 5747 5749 5751 5751 5752 5752 5753 5753 5754 5755 5756 5757 5757 5758 5759 5759 5760 5760 5761 5762 5763 5763 5763 5764 5764 5765 5765 5764 5766 5766 5766 5767 5768 5768 5768 5768
5762 5761 5761 5761 5760 5760 5759 5759 5758 5758 5757 5756 5755 5753 5752 5750 5749 5747 5745 5743 5740 5738 5737 5735 5733 5732 5732 5732 5732 5732 5733 5733 5733 5734 5735 5735 5735 5735 5735 5735 5734 5734 5735 5737 5738 5738 5739 5740 5741 5743 5745 5747 5748 5749 5749 5749 5749 5750 5751 5752 5753 5753 5754 5755 5756 5756 5757 5757 5758 5760 5760 5759 5759 5761 5761 5762 5761 5762 5764 5764 5764 5765 5765 5765 5765
5759 5758 5758 5758 5758 5757 5756 5756 5756 5755 5754 5753 5752 5750 5749 5748 5747 5745 5744 5742 5739 5737 5735 5734 5732 5730 5730 5730 5730 5730 5730 5730 5730 5731 5732 5732 5731 5732 5733 5733 5732 5732 5733 5734 5734 5735 5735 5736 5737 5739 5741 5742 5744 5747 5747 5746 5746 5746 5747 5747 5748 5748 5749 5751 5753 5753 5753 5754 5755 5756 5757 5755 5755 5757 5758 5759 5759 5759 5760 5761 5761 5761 5762 5762 5762
5756 5755 5755 5755 5755 5754 5754 5753 5753 5752 5751 5750 5749 5747 5746 5745 5744 5743 5742 5741 5738 5736 5734 5733 5731 5730 5729 5728 5728 5728 5727 5727 5727 5727 5727 5727 5728 5729 5730 5730 5730 5731 5731 5731 5731 5731 5732 5733 5733 5735 5737 5738 5740 5742 5742 5741 5742 5742 5743 5744 5745 5745 5746 5748 5749 5749 5749 5750 5751 5753 5753 5752 5752 5753 5754 5755 5756 5756 5756 5757 5758 5758 5758 5759 5758
5753 5752 5752 5752 5752 5751 5751 5750 5750 5749 5748 5747 5746 5745 5743 5742 5741 5740 5739 5739 5737 5735 5734 5732 5731 5729 5728 5727 5726 5725 5725 5725 5724 5723 5722 5723 5724 5725 5725 5725 5726 5727 5728 5728 5728 5728 5729 5729 5730 5732 5733 5734 5735 5736 5736 5736 5738 5739 5740 5741 5741 5742 5743 5744 5745 5746 5746 5747 5747 5749 5749 5749 5749 5749 5750 5751 5752 5752 5753 5754 5754 5755 5755 5755 5755
5750 5749 5749 5749 5749 5748 5748 5747 5746 5746 5745 5743 5743 5742 5740 5739 5738 5737 5736 5736 5735 5734 5732 5731 5729 5728 5727 5726 5724 5723 5723 5723 5722 5721 5721 5721 5721 5721 5720 5721 5722 5722 5723 5724 5724 5724 5725 5726 5726 5728 5729 5729 5730 5732 5732 5733 5734 5735 5736 5737 5738 5739 5740 5741 5742 5743 5743 5743 5744 5745 5746 5746 5745 5745 5746 5747 5747 5748 5749 5750 5750 5751 5751 5751 5751
5746 5746 5746 5745 5745 5745 5744 5743 5743 5742 5742 5741 5739 5739 5737 5736 5735 5734 5733 5732 5732 5732 5730 5728 5727 5726 5725 5724 5723 5722 5721 5721 5720 5720 5720 5719 5719 5719 5718 5718 5719 5719 5719 5720 5720 5721 5722 5722 5723 5724 5725 5726 5726 5727 5728 5729 5730 5731 5731 5733 5734 5735 5736 5737 5738 5739 5739 5740 5740 5740 5741 5742 5742 5742 5742 5743 5743 5744 5745 5745 5745 5747 5747 5746 5747
5743 5742 5742 5742 5741 5741 5740 5740 5739 5739 5738 5737 5736 5735 5734 5733 5732 5731 5729 5728 5728 5728 5728 5726 5725 5724 5722 5721 5720 5719 5719 5719 5718 5718 5717 5717 5717 5717 5716 5715 5715 5715 5716 5716 5716 5717 5718 5718 5719 5720 5721 5722 5724 5724 5724 5724 5725 5726 5727 5728 5729 5731 5731 5733 5734 5735 5735 5735 5736 5737 5737 5738 5738 5738 5739 5739 5739 5739 5740 5741 5741 5742 5742 5742 5743
5739 5739 5738 5738 5737 5736 5736 5736 5735 5735 5735 5734 5733 5732 5731 5730 5729 5728 5726 5724 5723 5723 5724 5723 5722 5721 5719 5718 5717 5716 5716 5716 5715 5714 5714 5714 5714 5714 5713 5712 5711 5711 5711 5712 5712 5712 5713 5714 5714 5716 5717 5718 5720 5721 5720 5720 5721 5722 5722 5723 5724 5725 5727 5728 5730 5730 5730 5731 5733 5733 5734 5734 5734 5734 5735 5735 5734 5735 5736 5737 5737 5738 5738 5739 5739
5735 5735 5734 5733 5733 5732 5732 5732 5731 5731 5731 5730 5729 5728 5727 5726 5725 5724 5723 5721 5720 5719 5719 5719 5718 5717 5716 5715 5714 5713 5713 5712 5712 5711 5710 5710 5710 5711 5710 5709 5708 5707 5707 5707 5707 5708 5709 5710 5711 5711 5711 5713 5715 5716 5715 5716 5717 5718 5717 5718 5719 5721 5722 5723 5725 5725 5726 5728 5729 5729 5729 5729 5729 5730 5730 5730 5730 5731 5732 5732 5732 5733 5734 5735 5735
5731 5731 5730 5729 5729 5728 5728 5728 5727 5727 5726 5726 5725 5724 5723 5722 5721 5720 5719 5718 5716 5715 5714 5714 5714 5713 5712 5711 5710 5710 5709 5709 5708 5707 5707 5706 5706 5707 5707 5706 5705 5703 5702 5703 5703 5704 5705 5706 5707 5706 5706 5707 5709 5709 5710 5712 5714 5713 5713 5714 5715 5716 5717 5718 5720 5722 5722 5724 5725 5725 5724 5725 5726 5727 5727 5726 5725 5726 5728 5728 5728 5729 5730 5729 5729
5727 5727 5726 5725 5725 5724 5724 5723 5723 5722 5722 5721 5720 5719 5718 5717 5717 5716 5715 5714 5713 5711 5710 5709 5709 5709 5708 5707 5706 5706 5705 5705 5704 5704 5703 5703 5702 5702 5702 5702 5701 5699 5699 5699 5699 5699 5700 5701 5702 5702 5702 5703 5704 5704 5705 5708 5709 5708 5708 5709 5710 5710 5711 5713 5716 5718 5717 5718 5720 5720 5721 5722 5723 5724 5725 5724 5722 5722 5723 5724 5724 5725 5724 5724 5723
5723 5722 5722 5721 5720 5720 5719 5719 5718 5717 5717 5716 5715 5714 5713 5713 5712 5711 5710 5709 5708 5707 5706 5705 5704 5704 5703 5703 5702 5702 5701 5701 5700 5700 5699 5699 5698 5698 5698 5698 5697 5696 5695 5695 5695 5695 5695 5696 5696 5698 5699 5699 5700 5700 5702 5704 5704 5703 5703 5705 5705 5706 5707 5708 5711 5713 5712 5713 5714 5715 5716 5718 5718 5719 5720 5720 5720 5719 5719 5720 5721 5720 5719 5719 5719
5719 5718 5717 5716 5716 5715 5714 5714 5713 5712 5711 5710 5710 5709 5708 5707 5707 5706 5705 5704 5703 5702 5701 5700 5699 5699 5698 5698 5698 5697 5697 5696 5696 5696 5695 5695 5694 5693 5693 5693 5693 5692 5691 5691 5691 5690 5691 5691 5692 5693 5694 5694 5695 5696 5697 5699 5700 5699 5700 5701 5702 5702 5702 5704 5706 5707 5707 5709 5711 5711 5712 5713 5713 5715 5715 5714 5715 5715 5715 5716 5717 5715 5715 5715 5714
5714 5713 5713 5712 5711 5710 5709 5709 5707 5707 5706 5705 5704 5703 5702 5702 5701 5700 5700 5699 5698 5697 5696 5695 5694 5694 5693 5693 5692 5692 5692 5692 5691 5691 5691 5690 5690 5689 5688 5688 5689 5688 5688 5687 5686 5686 5686 5687 5687 5688 5688 5688 5690 5691 5692 5694 5695 5695 5695 5696 5697 5698 5699 5700 5701 5701 5703 5706 5708 5708 5708 5708 5709 5711 5711 5709 5710 5711 5711 5711 5712 5711 5711 5711 5711
5710 5709 5708 5707 5707 5705 5704 5703 5702 5701 5701 5699 5698 5697 5696 5696 5695 5694 5694 5693 5693 5692 5691 5690 5689 5688 5688 5687 5687 5687 5687 5687 5686 5686 5686 5686 5685 5684 5684 5683 5683 5683 5683 5683 5682 5681 5682 5683 5682 5682 5683 5683 5684 5685 5687 5688 5689 5689 5689 5690 5691 5693 5694 5695 5696 5697 5699 5701 5703 5703 5703 5704 5705 5706 5706 5705 5705 5706 5706 5707 5707 5706 5706 5706 5707
5705 5704 5703 5703 5702 5700 5698 5698 5697 5695 5695 5693 5692 5691 5690 5689 5688 5688 5687 5687 5686 5686 5685 5684 5684 5683 5682 5682 5682 5681 5681 5681 5681 5681 5680 5680 5680 5680 5679 5679 5678 5677 5677 5677 5677 5677 5678 5678 5678 5678 5678 5678 5678 5679 5681 5682 5682 5683 5683 5684 5685 5687 5688 5689 5691 5692 5694 5695 5697 5698 5698 5699 5701 5701 5701 5701 5702 5702 5702 5702 5703 5702 5701 5701 5702
5700 5699 5698 5697 5696 5694 5692 5692 5691 5689 5688 5687 5685 5684 5683 5682 5681 5680 5679 5679 5679 5678 5678 5678 5677 5677 5676 5676 5676 5676 5676 5675 5675 5675 5675 5675 5674 5674 5674 5674 5674 5673 5672 5672 5672 5671 5672 5673 5673 5674 5674 5674 5673 5674 5675 5676 5677 5678 5679 5679 5680 5682 5682 5683 5685 5688 5689 5689 5691 5693 5693 5695 5697 5697 5697 5697 5698 5699 5698 5697 5698 5698 5697 5696 5697
5695 5694 5693 5692 5691 5689 5687 5685 5684 5683 5681 5680 5678 5677 5676 5675 5674 5673 5672 5671 5671 5670 5670 5670 5670 5669 5669 5669 5669 5669 5669 5669 5669 5668 5668 5669 5669 5669 5668 5669 5669 5668 5668 5668 5667 5666 5666 5667 5668 5669 5669 5669 5668 5669 5670 5671 5672 5674 5675 5675 5676 5677 5677 5678 5680 5683 5684 5684 5686 5688 5689 5690 5692 5692 5692 5692 5693 5694 5694 5693 5694 5694 5693 5692 5692
5690 5689 5687 5686 5685 5683 5681 5679 5678 5676 5675 5673 5671 5670 5669 5668 5667 5666 5665 5664 5663 5662 5662 5662 5662 5662 5662 5662 5662 5662 5662 5663 5663 5662 5662 5663 5663 5663 5663 5663 5663 5663 5663 5663 5663 5662 5662 5662 5663 5663 5663 5663 5663 5664 5665 5665 5667 5668 5669 5670 5671 5672 5673 5674 5676 5677 5678 5679 5681 5682 5683 5685 5686 5687 5687 5688 5688 5689 5689 5689 5690 5690 5689 5688 5688
5685 5683 5682 5680 5679 5677 5675 5672 5670 5670 5668 5665 5664 5662 5661 5660 5659 5658 5657 5656 5655 5654 5654 5654 5654 5654 5654 5654 5654 5655 5655 5655 5656 5656 5656 5656 5657 5657 5657 5657 5657 5658 5658 5658 5658 5658 5658 5658 5658 5658 5658 5658 5658 5659 5659 5659 5661 5662 5663 5664 5665 5666 5667 5669 5670 5671 5672 5674 5675 5676 5677 5679 5680 5680 5682 5683 5683 5683 5684 5684 5685 5685 5684 5683 5682
5679 5677 5676 5674 5672 5670 5668 5665 5663 5662 5659 5657 5655 5654 5652 5651 5650 5649 5649 5648 5647 5646 5646 5645 5645 5645 5646 5646 5646 5646 5647 5648 5649 5649 5649 5649 5650 5650 5651 5651 5651 5652 5652 5652 5653 5653 5653 5653 5653 5653 5652 5652 5653 5654 5654 5654 5655 5656 5657 5658 5659 5660 5662 5663 5664 5665 5666 5667 5669 5670 5671 5673 5674 5675 5676 5677 5677 5677 5678 5679 5679 5678 5678 5678 5677
5674 5672 5670 5668 5666 5664 5661 5658 5655 5653 5651 5649 5647 5645 5643 5642 5641 5640 5639 5638 5638 5638 5637 5637 5636 5637 5637 5638 5638 5638 5639 5640 5641 5642 5643 5643 5643 5644 5644 5645 5645 5646 5646 5646 5647 5647 5648 5648 5647 5647 5647 5647 5648 5648 5649 5649 5650 5651 5652 5653 5654 5655 5656 5657 5658 5659 5660 5662 5663 5664 5666 5667 5668 5669 5670 5671 5671 5671 5671 5672 5672 5672 5672 5671 5670
5669 5667 5665 5662 5660 5657 5655 5652 5649 5645 5642 5640 5638 5636 5634 5633 5631 5630 5629 5628 5628 5628 5628 5628 5628 5628 5629 5629 5630 5631 5631 5632 5633 5634 5635 5636 5637 5637 5638 5638 5639 5639 5640 5640 5641 5641 5642 5643 5642 5642 5642 5642 5642 5643 5643 5644 5645 5646 5647 5648 5649 5650 5650 5651 5653 5654 5655 5656 5657 5659 5660 5661 5662 5663 5664 5664 5664 5664 5664 5665 5665 5665 5665 5664 5662
5665 5663 5661 5658 5655 5652 5649 5646 5643 5640 5636 5633 5630 5628 5626 5624 5622 5621 5620 5619 5619 5619 5619 5619 5620 5620 5620 5621 5622 5622 5623 5624 5625 5626 5627 5629 5630 5630 5631 5631 5632 5633 5633 5634 5635 5635 5636 5636 5637 5636 5636 5636 5637 5638 5639 5639 5640 5641 5642 5643 5644 5645 5645 5646 5647 5648 5650 5651 5652 5653 5654 5655 5655 5657 5657 5657 5658 5658 5657 5658 5658 5658 5657 5657 5656
5663 5660 5658 5655 5652 5648 5645 5642 5639 5635 5632 5629 5626 5623 5620 5618 5616 5614 5613 5612 5612 5611 5610 5610 5611 5612 5612 5613 5614 5614 5615 5616 5617 5618 5619 5620 5622 5623 5624 5625 5625 5626 5627 5627 5628 5629 5629 5630 5630 5631 5631 5631 5632 5633 5634 5635 5635 5636 5637 5637 5638 5639 5640 5641 5642 5643 5644 5645 5646 5647 5648 5648 5649 5650 5650 5651 5651 5651 5650 5650 5651 5651 5650 5650 5651
5661 5658 5656 5653 5650 5646 5643 5639 5636 5632 5629 5626 5623 5621 5618 5615 5612 5610 5608 5607 5606 5605 5604 5604 5604 5604 5605 5606 5606 5607 5608 5608 5609 5610 5612 5613 5614 5616 5617 5618 5618 5619 5620 5621 5621 5622 5623 5623 5624 5625 5625 5626 5627 5627 5628 5629 5630 5631 5631 5632 5633 5634 5635 5635 5636 5637 5638 5639 5640 5641 5641 5642 5642 5643 5643 5643 5643 5643 5644 5644 5644 5643 5643 5644 5644
5659 5657 5654 5652 5649 5645 5642 5638 5635 5631 5628 5625 5622 5619 5617 5614 5611 5609 5606 5604 5602 5601 5600 5599 5598 5598 5598 5599 5599 5600 5601 5601 5602 5603 5604 5605 5607 5608 5609 5610 5611 5612 5613 5614 5615 5616 5616 5617 5618 5619 5620 5620 5621 5622 5623 5623 5624 5625 5626 5626 5627 5628 5629 5630 5630 5631 5631 5632 5633 5634 5634 5635 5635 5635 5636 5636 5636 5636 5637 5636 5636 5637 5637 5636 5637
5658 5656 5653 5651 5648 5645 5642 5638 5635 5632 5628 5625 5622 5618 5616 5613 5611 5608 5606 5603 5600 5599 5597 5596 5595 5594 5593 5593 5593 5594 5594 5595 5595 5596 5597 5598 5600 5601 5602 5603 5604 5606 5607 5608 5609 5609 5610 5611 5612 5613 5613 5614 5615 5616 5617 5617 5618 5619 5619 5620 5621 5622 5622 5623 5624 5624 5625 5625 5626 5626 5627 5627 5628 5628 5629 5629 5629 5629 5629 5629 5629 5629 5629 5629 5629
5657 5655 5652 5650 5647 5645 5642 5639 5636 5632 5629 5625 5622 5619 5616 5613 5610 5608 5605 5603 5600 5598 5596 5594 5592 5591 5590 5589 5588 5588 5589 5589 5589 5590 5591 5592 5593 5594 5595 5596 5598 5599 5600 5602 5603 5603 5604 5605 5606 5606 5607 5608 5609 5609 5610 5611 5612 5612 5613 5613 5614 5615 5616 5617 5617 5618 5618 5619 5619 5620 5620 5620 5621 5621 5621 5622 5622 5622 5622 5622 5621 5621 5622 5622 5621
5656 5654 5652 5650 5647 5645 5642 5639 5636 5633 5630 5627 5623 5620 5616 5613 5610 5607 5605 5602 5600 5598 5595 5593 5591 5589 5588 5586 5585 5584 5584 5584 5584 5585 5585 5586 5587 5588 5589 5590 5591 5592 5593 5595 5596 5597 5598 5598 5599 5600 5600 5601 5602 5602 5603 5604 5605 5605 5606 5607 5607 5608 5609 5609 5610 5611 5611 5612 5612 5613 5613 5613 5613 5614 5614 5614 5615 5615 5614 5614 5614 5613 5614 5614 5613
5655 5653 5651 5649 5647 5644 5642 5640 5637 5634 5631 5628 5625 5621 5618 5614 5611 5608 5605 5602 5600 5597 5595 5593 5590 5588 5586 5585 5583 5582 5581 5580 5580 5580 5580 5580 5581 5582 5583 5584 5585 5586 5587 5588 5589 5590 5591 5591 5592 5593 5594 5594 5595 5596 5596 5597 5597 5598 5599 5600 5600 5601 5602 5602 5603 5604 5604 5605 5605 5605 5605 5606 5606 5607 5607 5607 5607 5607 5607 5606 5606 5606 5606 5605 5605
5654 5652 5650 5648 5646 5644 5642 5640 5637 5634 5631 5628 5625 5622 5619 5615 5612 5609 5606 5603 5600 5597 5595 5592 5590 5588 5586 5584 5582 5581 5579 5578 5577 5576 5576 5576 5576 5576 5577 5578 5578 5579 5580 5581 5582 5583 5584 5584 5585 5586 5587 5588 5588 5589 5590 5590 5591 5591 5592 5593 5594 5594 5595 5596 5596 5596 5597 5597 5598 5598 5599 5599 5599 5599 5599 5600 5600 5600 5600 5599 5599 5599 5599 5598 5598
5653 5651 5649 5648 5646 5644 5642 5640 5637 5635 5632 5629 5626 5623 5620 5617 5613 5610 5607 5604 5601 5598 5595 5593 5591 5588 5586 5584 5582 5580 5578 5576 5575 5574 5573 5572 5571 5572 5572 5572 5573 5573 5574 5574 5575 5576 5577 5577 5578 5579 5579 5580 5581 5582 5583 5583 5584 5585 5586 5587 5587 5588 5588 5589 5589 5590 5590 5590 5591 5591 5592 5592 5592 5592 5592 5592 5592 5593 5593 5593 5592 5592 5592 5592 5592
5652 5651 5649 5647 5645 5643 5641 5639 5637 5635 5632 5629 5626 5623 5620 5617 5614 5611 5609 5606 5602 5599 5596 5594 5591 5589 5586 5584 5581 5579 5577 5575 5573 5572 5570 5569 5568 5568 5567 5567 5568 5568 5568 5569 5569 5569 5570 5571 5572 5572 5573 5573 5574 5575 5576 5576 5577 5578 5579 5580 5581 5581 5582 5582 5583 5583 5584 5584 5585 5585 5585 5585 5585 5585 5585 5585 5586 5586 5586 5587 5587 5586 5586 5586 5585
5651 5650 5648 5646 5644 5643 5641 5639 5637 5634 5632 5629 5627 5624 5621 5618 5615 5612 5609 5607 5604 5601 5598 5595 5592 5589 5586 5583 5581 5579 5576 5574 5572 5570 5569 5567 5566 5565 5564 5563 5563 5563 5563 5563 5564 5564 5564 5565 5566 5566 5567 5567 5568 5568 5569 5570 5570 5571 5572 5573 5573 5574 5574 5575 5576 5576 5577 5577 5578 5578 5578 5579 5579 5579 5579 5579 5579 5579 5580 5580 5580 5580 5580 5579 5579
5650 5648 5647 5645 5643 5641 5640 5638 5636 5634 5632 5629 5627 5624 5621 5618 5616 5613 5610 5607 5604 5602 5599 5596 5592 5589 5587 5584 5581 5578 5576 5573 5571 5569 5567 5565 5564 5562 5561 5560 5559 5559 5559 5559 5559 5559 5559 5559 5560 5561 5561 5562 5562 5563 5563 5564 5564 5565 5565 5566 5566 5567 5568 5569 5569 5570 5570 5571 5571 5572 5572 5573 5573 5573 5573 5573 5573 5573 5574 5574 5574 5574 5574 5573 5573
5649 5647 5645 5644 5642 5640 5638 5636 5634 5633 5631 5628 5626 5623 5621 5619 5616 5613 5611 5608 5605 5602 5599 5596 5593 5590 5587 5584 5581 5578 5576 5573 5571 5568 5566 5564 5562 5560 5558 5557 5556 5555 5555 5554 5554 5554 5554 5554 5555 5555 5556 5556 5557 5557 5558 5558 5559 5559 5559 5560 5560 5561 5562 5562 5563 5563 5564 5565 5565 5566 5566 5566 5566 5566 5566 5567 5567 5567 5567 5567 5567 5568 5568 5567 5567
5648 5646 5644 5642 5641 5639 5637 5635 5633 5631 5629 5627 5625 5623 5621 5618 5616 5613 5610 5608 5605 5602 5599 5596 5594 5591 5588 5585 5582 5579 5576 5573 5570 5568 5565 5563 5560 5558 5556 5554 5553 5552 5551 5551 5550 5550 5550 5550 5550 5550 5551 5551 5552 5553 5553 5553 5553 5553 5554 5554 5555 5555 5556 5556 5556 5557 5558 5559 5559 5559 5559 5559 5559 5560 5560 5560 5561 5561 5561 5561 5562 5562 5562 5562 5562
5647 5645 5644 5642 5640 5638 5636 5634 5632 5630 5628 5626 5624 5622 5620 5618 5615 5612 5610 5607 5605 5602 5599 5596 5593 5591 5588 5585 5582 5579 5576 5573 5570 5567 5565 5562 5560 5557 5555 5553 5551 5550 5548 5547 5547 5546 5546 5546 5546 5546 5546 5547 5547 5548 5549 5549 5549 5549 5549 5549 5549 5550 5550 5551 5551 5552 5553 5553 5553 5553 5553 5553 5554 5554 5554 5554 5555 5556 5556 5556 5556 5557 5557 5557 5558
5646 5645 5643 5641 5639 5637 5635 5633 5631 5629 5627 5625 5623 5621 5619 5617 5614 5612 5609 5606 5604 5601 5599 5596 5593 5590 5588 5585 5582 5579 5576 5573 5570 5567 5564 5562 5559 5557 5554 5552 5550 5548 5546 5545 5544 5543 5543 5542 5542 5542 5542 5542 5543 5543 5544 5544 5545 5545 5545 5545 5545 5545 5545 5546 5546 5547 5547 5547 5547 5548 5548 5548 5548 5549 5549 5550 5550 5550 5551 5552 5552 5553 5553 5553 5554
5645 5643 5642 5640 5638 5636 5634 5632 5630 5628 5626 5624 5622 5620 5618 5616 5613 5611 5608 5606 5603 5600 5598 5595 5592 5590 5587 5585 5582 5579 5576 5573 5570 5567 5564 5561 5559 5556 5554 5551 5549 5547 5545 5544 5542 5541 5541 5540 5540 5539 5539 5539 5539 5539 5540 5540 5541 5541 5541 5541 5541 5541 5541 5541 5542 5542 5542 5542 5543 5543 5543 5544 5544 5545 5545 5546 5546 5546 5547 5548 5549 5549 5549 5550 5550
5644 5642 5640 5639 5637 5635 5633 5631 5629 5627 5625 5623 5621 5619 5616 5614 5612 5610 5608 5605 5603 5600 5597 5595 5592 5589 5586 5584 5581 5578 5576 5573 5570 5567 5564 5561 5559 5556 5554 5551 5548 5546 5544 5542 5541 5540 5539 5538 5537 5537 5537 5536 5536 5537 5537 5537 5537 5537 5538 5538 5538 5538 5538 5538 5539 5539 5539 5539 5539 5539 5540 5540 5541 5541 5542 5542 5543 5543 5544 5545 5545 5546 5546 5547 5547
5643 5641 5639 5637 5636 5634 5632 5630 5628 5626 5624 5622 5620 5618 5615 5613 5611 5609 5606 5604 5602 5599 5597 5594 5591 5588 5585 5583 5580 5577 5575 5573 5570 5567 5564 5561 5559 5556 5554 5551 5549 5546 5543 5541 5540 5538 5537 5536 5535 5535 5535 5534 5534 5534 5534 5534 5534 5534 5535 5535 5535 5535 5535 5536 5536 5536 5536 5536 5536 5536 5537 5537 5538 5538 5539 5539 5540 5540 5541 5541 5542 5543 5543 5544 5544
5641 5639 5638 5636 5634 5632 5631 5629 5627 5625 5623 5621 5619 5617 5614 5612 5610 5607 5605 5603 5600 5598 5596 5593 5590 5588 5585 5582 5579 5577 5574 5572 5569 5566 5563 5561 5558 5556 5553 5551 5548 5546 5543 5541 5539 5537 5536 5535 5534 5533 5533 5532 5532 5532 5532 5532 5532 5532 5532 5532 5532 5532 5532 5533 5533 5533 5533 5533 5534 5534 5534 5534 5535 5535 5536 5536 5537 5537 5538 5538 5539 5540 5540 5541 5541
5639 5637 5636 5634 5633 5631 5629 5628 5626 5624 5622 5620 5618 5615 5613 5611 5609 5606 5604 5601 5599 5597 5594 5592 5589 5587 5584 5581 5579 5576 5574 5571 5569 5566 5563 5560 5558 5555 5553 5551 5548 5546 5543 5541 5539 5537 5535 5534 5533 5532 5531 5531 5530 5530 5530 5530 5529 5529 5529 5529 5529 5529 5530 5530 5530 5530 5530 5530 5531 5531 5531 5531 5532 5532 5533 5533 5534 5534 5535 5536 5536 5537 5537 5538 5538
5637 5635 5634 5632 5631 5629 5627 5626 5624 5622 5620 5618 5616 5614 5612 5609 5607 5605 5603 5600 5598 5595 5593 5591 5588 5586 5583 5581 5578 5576 5573 5570 5568 5565 5563 5560 5558 5555 5553 5550 5548 5546 5543 5541 5539 5537 5535 5533 5532 5531 5530 5529 5528 5528 5528 5527 5527 5527 5527 5527 5527 5527 5527 5527 5527 5527 5527 5527 5528 5528 5528 5528 5528 5529 5529 5530 5531 5531 5532 5532 5533 5534 5534 5534 5535